Location: ?????
(55.8833°N, 37.6500°E)
Time: 21:48:24
(UTC+00:00)

ARGOS - Pass Details

Date: 27 February 2020
Orbit: 819 x 835 km, 98.5° (Epoch: 05 April)

Event Time Altitude Azimuth Distance (km) Brightness Sun altitude
Exits shadow 17:23:06 - 176° (S) 3,195 6.0 -20.9°
Reaches altitude 10° 17:25:02 10° 180° (S) 2,444 5.4 -21.2°
Maximum altitude 17:30:22 58° 259° (WSW) 977 3.7 -21.9°
Drops below altitude 10° 17:35:46 10° 338° (NNW) 2,461 6.1 -22.6°
Sets 17:38:11 0° 343° (NNW) 3,399 6.9 -22.9°
